Location: Calvatone
(45.1167°N, 10.4333°E)
Time: 13:41:30
(UTC+00:00)

USA 281 - Pass Details

Date: 28 January 2023
Orbit: 1079 x 1080 km, 106.0° (Epoch: 28 March)

Event Time Altitude Azimuth Distance (km) Brightness Sun altitude
Rises 16:50:30 0° 19° (NNE) 3,888 5.8 -5.9°
Reaches altitude 10° 16:53:09 10° 13° (NNE) 2,929 5.2 -6.3°
Maximum altitude 16:59:11 41° 306° (NW) 1,530 4.4 -7.3°
Drops below altitude 10° 17:05:13 10° 239° (WSW) 2,916 7.0 -8.3°
Sets 17:07:52 0° 232° (SW) 3,868 7.7 -8.8°
